TimeEST,TemperatureF,Dew PointF,Humidity,Sea Level PressureIn,VisibilityMPH,Wind Direction,Wind SpeedMPH,Gust SpeedMPH,PrecipitationIn,Events,Conditions,WindDirDegrees,DateUTC
12:15 AM,48.2,44.6,87,29.91,10.0,SSW,5.8,-,N/A,,Clear,200,2013-01-12 05:15:00
12:35 AM,50.0,44.6,82,29.90,10.0,SSW,6.9,-,N/A,,Clear,200,2013-01-12 05:35:00
1:15 AM,50.0,44.6,82,29.90,10.0,SSW,8.1,-,N/A,,Clear,200,2013-01-12 06:15:00
1:35 AM,50.0,44.6,82,29.91,10.0,SSW,8.1,-,N/A,,Clear,200,2013-01-12 06:35:00
1:55 AM,48.2,44.6,87,29.91,10.0,South,5.8,-,N/A,,Clear,190,2013-01-12 06:55:00
2:15 AM,46.4,44.6,93,29.91,10.0,South,5.8,-,N/A,,Clear,190,2013-01-12 07:15:00
2:35 AM,46.4,44.6,93,29.92,10.0,South,5.8,-,N/A,,Clear,180,2013-01-12 07:35:00
2:55 AM,46.4,44.6,93,29.92,10.0,South,6.9,-,N/A,,Clear,180,2013-01-12 07:55:00
3:15 AM,46.4,44.6,93,29.92,10.0,SSW,6.9,-,N/A,,Clear,200,2013-01-12 08:15:00
3:35 AM,46.4,44.6,93,29.93,10.0,SSW,8.1,-,N/A,,Clear,200,2013-01-12 08:35:00
3:55 AM,48.2,46.4,93,29.93,10.0,SSW,8.1,-,N/A,,Clear,200,2013-01-12 08:55:00
4:15 AM,48.2,46.4,93,29.92,10.0,SSW,6.9,-,N/A,,Clear,200,2013-01-12 09:15:00
4:35 AM,48.2,46.4,93,29.92,10.0,SSW,6.9,-,N/A,,Clear,200,2013-01-12 09:35:00
4:55 AM,48.2,46.4,93,29.92,10.0,SSW,8.1,-,N/A,,Clear,200,2013-01-12 09:55:00
5:15 AM,50.0,48.2,94,29.92,10.0,SSW,8.1,-,N/A,,Clear,200,2013-01-12 10:15:00
5:35 AM,50.0,48.2,94,29.92,10.0,SSW,6.9,-,N/A,,Clear,200,2013-01-12 10:35:00
5:55 AM,48.2,48.2,100,29.93,10.0,SSW,5.8,-,N/A,,Clear,200,2013-01-12 10:55:00
6:15 AM,48.2,46.4,93,29.93,7.0,SSW,5.8,-,N/A,,Clear,200,2013-01-12 11:15:00
6:35 AM,48.2,46.4,93,29.94,7.0,SSW,6.9,-,N/A,,Clear,200,2013-01-12 11:35:00
6:55 AM,48.2,46.4,93,29.94,5.0,South,5.8,-,N/A,,Clear,190,2013-01-12 11:55:00
7:15 AM,46.4,46.4,100,29.95,4.0,SSW,4.6,-,N/A,,Clear,200,2013-01-12 12:15:00
7:35 AM,46.4,46.4,100,29.95,3.0,South,4.6,-,N/A,,Clear,190,2013-01-12 12:35:00
7:55 AM,46.4,46.4,100,29.97,2.5,South,5.8,-,N/A,,Clear,190,2013-01-12 12:55:00
8:15 AM,46.4,46.4,100,29.97,1.5,South,5.8,-,N/A,,Scattered Clouds,190,2013-01-12 13:15:00
8:35 AM,46.4,46.4,100,29.98,0.2,South,5.8,-,N/A,Fog,Fog,190,2013-01-12 13:35:00
8:55 AM,48.2,48.2,100,29.99,0.2,SSW,5.8,-,N/A,Fog,Fog,200,2013-01-12 13:55:00
9:15 AM,50.0,50.0,100,29.99,0.2,South,6.9,-,N/A,Fog,Fog,190,2013-01-12 14:15:00
9:35 AM,50.0,50.0,100,29.99,1.5,SSW,8.1,-,N/A,,Overcast,210,2013-01-12 14:35:00
9:55 AM,51.8,51.8,100,30.01,5.0,SW,10.4,-,N/A,,Overcast,230,2013-01-12 14:55:00
10:15 AM,53.6,53.6,100,29.99,7.0,SW,11.5,-,N/A,,Overcast,220,2013-01-12 15:15:00
10:35 AM,53.6,53.6,100,30.00,10.0,SW,8.1,-,N/A,,Overcast,230,2013-01-12 15:35:00
10:55 AM,55.4,53.6,94,30.01,10.0,SW,11.5,-,N/A,,Overcast,230,2013-01-12 15:55:00
11:15 AM,55.4,53.6,94,30.00,10.0,SW,9.2,-,N/A,,Overcast,220,2013-01-12 16:15:00
11:35 AM,55.4,53.6,94,29.99,10.0,SW,8.1,-,N/A,,Overcast,220,2013-01-12 16:35:00
11:55 AM,55.4,53.6,94,29.99,10.0,SW,8.1,-,N/A,,Overcast,220,2013-01-12 16:55:00
12:15 PM,55.4,53.6,94,29.98,10.0,SW,8.1,-,N/A,,Overcast,230,2013-01-12 17:15:00
12:35 PM,57.2,53.6,88,29.97,10.0,SW,9.2,-,N/A,,Scattered Clouds,220,2013-01-12 17:35:00
12:55 PM,59.0,53.6,82,29.97,10.0,SW,6.9,-,N/A,,Scattered Clouds,230,2013-01-12 17:55:00
1:15 PM,59.0,53.6,82,29.97,10.0,SW,8.1,-,N/A,,Mostly Cloudy,220,2013-01-12 18:15:00
1:35 PM,59.0,53.6,82,29.98,10.0,SSW,11.5,-,N/A,,Overcast,210,2013-01-12 18:35:00
1:55 PM,59.0,53.6,82,29.97,10.0,SW,8.1,-,N/A,,Overcast,220,2013-01-12 18:55:00
2:15 PM,59.0,53.6,82,29.98,10.0,SSW,10.4,-,N/A,,Mostly Cloudy,210,2013-01-12 19:15:00
2:35 PM,59.0,53.6,82,29.97,10.0,SW,6.9,-,N/A,,Overcast,230,2013-01-12 19:35:00
2:55 PM,59.0,53.6,82,29.97,10.0,SSW,3.5,-,N/A,,Overcast,210,2013-01-12 19:55:00
3:15 PM,60.8,53.6,77,29.97,10.0,Calm,Calm,-,N/A,,Mostly Cloudy,0,2013-01-12 20:15:00
3:35 PM,59.0,53.6,82,29.97,10.0,SSW,3.5,-,N/A,,Mostly Cloudy,210,2013-01-12 20:35:00
3:55 PM,59.0,53.6,82,29.96,10.0,Calm,Calm,-,N/A,,Overcast,0,2013-01-12 20:55:00
4:15 PM,59.0,53.6,82,29.97,10.0,Calm,Calm,-,N/A,,Overcast,0,2013-01-12 21:15:00
4:35 PM,59.0,55.4,88,29.95,10.0,SSE,3.5,-,N/A,,Overcast,160,2013-01-12 21:35:00
4:55 PM,59.0,53.6,82,29.93,10.0,SSE,5.8,-,N/A,,Overcast,150,2013-01-12 21:55:00
5:15 PM,55.4,53.6,94,29.92,10.0,SE,5.8,-,N/A,,Scattered Clouds,140,2013-01-12 22:15:00
5:35 PM,55.4,53.6,94,29.92,10.0,SE,3.5,-,N/A,,Mostly Cloudy,140,2013-01-12 22:35:00
5:55 PM,55.4,53.6,94,29.92,10.0,SE,3.5,-,N/A,,Mostly Cloudy,130,2013-01-12 22:55:00
6:15 PM,53.6,53.6,100,29.92,10.0,SSE,4.6,-,N/A,,Mostly Cloudy,150,2013-01-12 23:15:00
6:35 PM,55.4,53.6,94,29.92,10.0,SSE,4.6,-,N/A,,Mostly Cloudy,150,2013-01-12 23:35:00
7:15 PM,55.4,53.6,94,29.90,10.0,SE,4.6,-,N/A,,Overcast,130,2013-01-13 00:15:00
7:35 PM,55.4,53.6,94,29.88,7.0,ESE,5.8,-,N/A,,Overcast,120,2013-01-13 00:35:00
7:55 PM,55.4,53.6,94,29.87,7.0,ESE,5.8,-,N/A,,Overcast,120,2013-01-13 00:55:00
8:15 PM,55.4,53.6,94,29.85,5.0,SE,8.1,-,N/A,Rain,Rain,130,2013-01-13 01:15:00
8:35 PM,55.4,55.4,100,29.85,3.0,SE,9.2,-,0.06,Rain,Rain,130,2013-01-13 01:35:00
8:55 PM,55.4,55.4,100,29.85,1.8,SE,6.9,-,0.16,Rain,Heavy Rain,140,2013-01-13 01:55:00
9:15 PM,55.4,55.4,100,29.83,1.5,SE,8.1,-,0.06,Rain,Rain,140,2013-01-13 02:15:00
9:35 PM,55.4,55.4,100,29.83,1.2,SSE,5.8,-,0.19,Rain,Heavy Rain,150,2013-01-13 02:35:00
9:55 PM,57.2,57.2,100,29.82,1.5,SE,5.8,-,0.25,Rain,Rain,140,2013-01-13 02:55:00
10:15 PM,57.2,57.2,100,29.79,3.0,SE,10.4,-,0.03,Rain,Rain,130,2013-01-13 03:15:00
10:35 PM,59.0,59.0,100,29.77,7.0,SSE,13.8,-,0.04,Thunderstorm,Thunderstorm,150,2013-01-13 03:35:00
10:55 PM,59.0,59.0,100,29.77,7.0,South,15.0,21.9,0.04,,Overcast,170,2013-01-13 03:55:00
11:15 PM,60.8,60.8,100,29.76,10.0,South,17.3,24.2,N/A,,Overcast,180,2013-01-13 04:15:00
11:35 PM,60.8,60.8,100,29.76,10.0,South,13.8,24.2,N/A,,Overcast,190,2013-01-13 04:35:00
11:55 PM,60.8,60.8,100,29.75,10.0,South,15.0,20.7,N/A,,Overcast,190,2013-01-13 04:55:00